Tracking 22124 objects as of 25-Jan-2021
HD Live streaming from Space Station
objects crossing your sky now

SRMSAT

Track SRMSAT now!
10-day predictions
SRMSAT is classified as:


NORAD ID: 37841
Int'l Code: 2011-058D
Perigee: 855.6 km
Apogee: 872.7 km
Inclination: 20.0 °
Period: 102.1 minutes
Semi major axis: 7235 km
RCS: 0.1933 m2 (medium)
Launch date: October 12, 2011
Source: India (IND)
Launch site: SRIHARIKOTA (SRI)

Uplink (MHz): 145.900
Downlink (MHz): 437.500
Beacon (MHz): 437.425
Mode: CW
Call sign:
Status: Active

aabbcc
Your satellite tracking list
Your tracking list is empty




NASA's NSSDC Master Catalog

Two Line Element Set (TLE):
1 37841U 11058D   21025.55666792  .00000282  00000-0  95787-5 0  9997
2 37841  19.9727  84.7407 0011853 162.9574 345.7448 14.10683529479523
Source of the keplerian elements: Caltech